Simultaneous Nadir Overpasses (SNOs) Predictions

Prediction of SNOs between GOES-16 and METOP-C Satellite Orbit:

Table of predicted SNOs for the next 14.0 days since TLE Epoch: 2/5/2022
Index Date Time (GOES-16) GOES-16 Lat,Lon METOP-C Lat,Lon Distance(km) Time Diff (sec)
1 02/05/2022 02:40:41 -0.02, -75.18 0.00, -76.97 199.24 80
2 02/06/2022 02:17:14 -0.01, -75.18 0.70, -71.89 375.01 80
3 02/07/2022 14:38:46 0.02, -75.20 0.28, -76.45 141.73 80
4 02/08/2022 14:15:26 0.01, -75.21 -0.83, -71.45 427.58 80
5 02/10/2022 02:37:07 -0.02, -75.19 -0.18, -76.05 97.85 80
6 02/11/2022 02:13:48 -0.01, -75.19 0.93, -71.06 471.68 80
7 02/12/2022 14:35:18 0.02, -75.22 0.11, -75.61 44.52 80
8 02/15/2022 02:31:00 -0.02, -75.22 0.01, -75.22 3.48 80
9 02/17/2022 14:29:11 0.03, -75.27 -0.07, -74.77 56.13 80
